Orbital Elements at Epoch 2459200.5 (2020-Dec-17.0) TDB
Reference: JPL 8 (heliocentric ecliptic J2000)
Element | Value | Uncertainty (1-sigma) | Units |
e | .053879787044138 | 1.0785e-07 | |
a | 2.591965123043596 | 2.9341e-08 | au |
q | 2.452310594188174 | 2.7587e-07 | au |
i | 8.884267325418129 | 6.5481e-06 | deg |
node | 207.5180701337408 | 5.2305e-05 | deg |
peri | 261.9335731986847 | 0.00012484 | deg |
M | 75.25601158274368 | 0.00011241 | deg |
tp | 2458881.874262175015 (2020-Feb-02.37426218) | 0.00047424 | TDB |
period | 1524.200701107799 4.17 | 2.5881e-05 7.086e-08 | d yr |
n | .2361893678033016 | 4.0105e-09 | deg/d |
Q | 2.731619651899019 | 3.0922e-08 | au |
|
| | Orbit Determination Parameters
Additional Information
|